Regional Weather Roundup
Issued by NWS

Home | Current Version | Previous Version | Text Only | Print | Product List | Glossary Off
Versions: 1 2 3 4 5 6 7 8 9 10 11 12 13 14 15 16 17 18 19 20 21 22 23 24 25 26 27

000
ASUS45 KCYS 172210
RWRWY

WYOMING REGIONAL WEATHER ROUNDUP
NATIONAL WEATHER SERVICE CHEYENNE WY
300 PM MST TUE JAN 17 2017

NOTE:  "FAIR" INDICATES FEW OR NO CLOUDS BELOW 12,000 FEET
WITH NO SIGNIFICANT WEATHER AND/OR OBSTRUCTIONS TO VISIBILITY.

WYZ001-172300-
YELLOWSTONE NATIONAL PARK

CITY           SKY/WX    TMP DP  RH WIND       PRES   REMARKS
LK YELLOWSTONE   N/A     15   7  70 CALM      30.12F
W YELLOWSTONE  NOT AVBL

$$
WYZ002>013-054>058-071-098>099-172300-
NORTHERN WYOMING

CITY           SKY/WX    TMP DP  RH WIND       PRES   REMARKS
JACKSON        SUNNY      7   3  85 CALM      30.18F
CODY           FAIR      32  13  45 CALM      29.95F
GREYBULL       FAIR       8   0  69 NW6       30.02F WCI  -2
WORLAND        FAIR      20   9  62 CALM      29.99F
SHERIDAN       FAIR      32  18  56 S5        29.88S WCI  27
BUFFALO        FAIR      43  18  36 CALM      29.91R
GILLETTE       FAIR      44  23  43 SW12      29.89R
HULETT         FAIR      41  14  33 SW16      29.89S
NEWCASTLE      FAIR      34  21  60 W3        29.93S

$$
WYZ014>020-022>026-101>103-172300-
CENTRAL WYOMING

CITY           SKY/WX    TMP DP  RH WIND       PRES   REMARKS
BIG PINEY      FAIR       3  -4  72 CALM      30.14S
PINEDALE       FAIR      12   0  57 CALM      30.14S
DUBOIS         NOT AVBL
LANDER         FAIR      18   8  65 NE3       30.05S
RIVERTON       MIX PCPN  17   8  67 NW3       30.07S
CASPER         FAIR      36  11  35 SW29G44   29.99S WCI  23
DOUGLAS        FAIR      48   8  19 NW23      29.95R

$$
WYZ021-027>030-104>119-172300-
SOUTHERN WYOMING

CITY           SKY/WX    TMP DP  RH WIND       PRES   REMARKS
EVANSTON       FAIR      17   8  67 SE5       30.12S WCI  10
ROCK SPRINGS   FAIR       6   1  80 CALM      30.13F
RAWLINS        FAIR      23  11  60 SW12      30.13R WCI  12
LARAMIE        FAIR      21  13  71 N5        30.06R WCI  15
CHEYENNE       FAIR      50   1  13 N12       29.98R
TORRINGTON     FAIR      51   4  14 W12       29.95S

$$




USA.gov is the U.S. government's official web portal to all federal, state and local government web resources and services.